Погода в Константиновке

Россия / Республика Татарстан     55°48′37″N   49°15′43″E
темп.,
°C
ветер,
м/с
пор.,
м/с
влажн.,
%
обл.,
%
осадки,
мм/ч
давл.,
гПа
погр.,
м
11 апреля, вс
вс1100:00+1с34100100 0.1 1025100
03:00+1с36100100 4.4 1026131
06:00+2с26100100 1.0 1027151
09:00+2с38100100 1.1 1028192
12:00+2с36100100 4.8 1030185
15:00+3с25100100 5.6 1032196
18:00+2ссв26100100 0.6 1033145
21:00+2ссв3599100 0.6 1034125
12 апреля, пн
пн1200:00+1с2490100 0.4 103598
03:00+2ссв3689100 1.9 1036146
06:00+2св41088100 1.8 1037224
09:00+3всв398697 2.2 1038264
12:00+4всв498697 0.0 1038298
15:00+5в3883100 0.0 1038210
18:00+5в3983100 0.0 1037207
21:00+4в4108691 0.0 1037185
13 апреля, вт
вт1300:00+4вюв3889100 0.0 1037125
03:00+4вюв3594100 0.0 103671
06:00+5юв359554 0.0 103680
09:00+11ююв468095 0.0 1035289
12:00+15ююв466499 0.0 1034547
15:00+17ю465570 0.0 1033824
18:00+13ююв347060 0.0 103259
21:00+10ю337679 0.0 103223
14 апреля, ср
ср1400:00+8ю337868 0.0 103125
03:00+6ю33725 0.0 103121
06:00+6ююв33705 0.0 103142
09:00+12ю355334 0.0 1030307
12:00+16ю45385 0.0 1029760
15:00+17ю453238 0.0 1027910
18:00+13ююв33495 0.0 102648
21:00+10ю22565 0.0 102610
15 апреля, чт
чт1500:00+8ю22635 0.0 102510
03:00+7ююв227558 0.0 102410
06:00+7ю22806 0.0 102326
09:00+13ю34574 0.0 1022343
12:00+17ююз34425 0.0 10211092
15:00+18ююз34385 0.0 10191468
18:00+15ююз22540 0.0 101820
21:00+12юз22620 0.0 101710